Weather History for Claxton, GA

Change the Weather History Date:

Wednesday, November 7, 2012

  Actual Average (KSAV) Record (KSAV)
Temperature  
Mean Temperature 46 °F 62 °F  
Max Temperature 55 °F 73 °F 86 °F (1986)
Min Temperature 37 °F 50 °F 29 °F (1967)
Degree Days  
Heating Degree Days 19 5  
Month to date heating degree days 31  
Since 1 July heating degree days 88  
Cooling Degree Days 0 2  
Month to date cooling degree days 14  
Year to date cooling degree days 2426  
Moisture  
Dew Point 42 °F    
Average Humidity 80    
Maximum Humidity 100    
Minimum Humidity 58    
Precipitation  
Precipitation 0.00 in 0.08 in 1.34 in (1895)
Month to date precipitation 0.54  
Year to date precipitation 43.18  
Sea Level Pressure  
Sea Level Pressure 29.95 in    
Wind  
Wind Speed 2 mph (NW)    
Max Wind Speed 8 mph    
Max Gust Speed -    
Visibility 9 miles    
Events      
T = Trace of Precipitation, MM = Missing Value Source: NWS Daily Summary

Daily Weather History Graph

Daily Weather History Graph

Search for Another Location

Airport:

Trip Planner

Search our weather history database for the weather conditions in past years. The results will help you decide how hot, cold, wet, or windy it might be!

Date:

Astronomy

Nov. 07, 2012 Rise Set
Actual Time 6:49 AM EST 5:32 PM EST
Civil Twilight 6:24 AM EST 5:57 PM EST
Nautical Twilight 5:55 AM EST 6:26 PM EST
Astronomical Twilight 5:26 AM EST 6:55 PM EST
Moon 12:06 AM EST (11/7) 1:18 PM EST (11/7)
Length of Visible Light 11h 33m
Length of Day
10h 42m
Last Quarter, 43% of the Moon is Illuminated
Nov 7
Last Quarter
Nov 13
New
Nov 20
First Quarter
Nov 28
Full
Dec 6
Last Quarter

Hourly Weather History & Observations

Time (EST) Temp. Windchill Dew Point Humidity Pressure Visibility Wind Dir Wind Speed Gust Speed Precip Events Conditions
12:15 AM 37.4 °F - 37.4 °F 100% 29.94 in 7.0 mi Calm Calm - N/A   Mostly Cloudy
12:35 AM 41.0 °F 39.0 °F 41.0 °F 100% 29.94 in 7.0 mi WNW 3.5 mph - N/A   Overcast
12:55 AM 41.0 °F - 41.0 °F 100% 29.94 in 10.0 mi Calm Calm - N/A   Overcast
1:15 AM 42.8 °F - 42.8 °F 100% 29.94 in 10.0 mi Calm Calm - N/A   Overcast
1:35 AM 44.6 °F - 42.8 °F 93% 29.94 in 10.0 mi Calm Calm - N/A   Overcast
1:55 AM 44.6 °F 43.1 °F 42.8 °F 93% 29.94 in 10.0 mi NNW 3.5 mph - N/A   Overcast
2:15 AM 44.6 °F - 41.0 °F 87% 29.93 in 10.0 mi Calm Calm - N/A   Overcast
2:35 AM 44.6 °F 43.1 °F 41.0 °F 87% 29.93 in 10.0 mi North 3.5 mph - N/A   Overcast
2:55 AM 44.6 °F 42.2 °F 41.0 °F 87% 29.92 in 10.0 mi North 4.6 mph - N/A   Overcast
3:15 AM 44.6 °F - 41.0 °F 87% 29.92 in 10.0 mi Calm Calm - N/A   Overcast
3:55 AM 44.6 °F - 39.2 °F 81% 29.92 in 10.0 mi Calm Calm - N/A   Overcast
4:15 AM 44.6 °F - 39.2 °F 81% 29.92 in 10.0 mi Calm Calm - N/A   Overcast
4:35 AM 44.6 °F 43.1 °F 39.2 °F 81% 29.92 in 10.0 mi North 3.5 mph - N/A   Overcast
4:55 AM 44.6 °F - 39.2 °F 81% 29.93 in 10.0 mi Calm Calm - N/A   Overcast
5:15 AM 44.6 °F - 39.2 °F 81% 29.93 in 10.0 mi Calm Calm - N/A   Overcast
5:35 AM 44.6 °F - 39.2 °F 81% 29.94 in 10.0 mi Calm Calm - N/A   Overcast
5:55 AM 44.6 °F - 37.4 °F 76% 29.94 in 10.0 mi Calm Calm - N/A   Overcast
6:15 AM 44.6 °F - 37.4 °F 76% 29.94 in 10.0 mi Calm Calm - N/A   Overcast
8:15 AM 44.6 °F 43.1 °F 39.2 °F 81% 29.96 in 10.0 mi NNW 3.5 mph - N/A   Overcast
8:35 AM 44.6 °F 43.1 °F 37.4 °F 76% 29.97 in 10.0 mi NNW 3.5 mph - N/A   Overcast
8:55 AM 44.6 °F 41.4 °F 37.4 °F 76% 29.97 in 10.0 mi WNW 5.8 mph - N/A   Overcast
9:15 AM 46.4 °F 45.2 °F 37.4 °F 71% 29.97 in 10.0 mi NNW 3.5 mph - N/A   Overcast
9:35 AM 46.4 °F 44.3 °F 37.4 °F 71% 29.98 in 10.0 mi NW 4.6 mph - N/A   Overcast
9:55 AM 46.4 °F 44.3 °F 39.2 °F 76% 29.98 in 10.0 mi WNW 4.6 mph - N/A   Overcast
10:15 AM 48.2 °F - 39.2 °F 71% 29.98 in 10.0 mi West 3.5 mph - N/A   Overcast
10:35 AM 48.2 °F - 41.0 °F 76% 29.97 in 10.0 mi WNW 5.8 mph - N/A   Overcast
11:15 AM 50.0 °F - 39.2 °F 66% 29.97 in 10.0 mi Calm Calm - N/A   Overcast
11:35 AM 51.8 °F - 39.2 °F 62% 29.96 in 10.0 mi NW 5.8 mph - N/A   Scattered Clouds
11:55 AM 53.6 °F - 41.0 °F 62% 29.95 in 10.0 mi WNW 5.8 mph - N/A   Mostly Cloudy
12:15 PM 53.6 °F - 41.0 °F 62% 29.94 in 10.0 mi WNW 8.1 mph - N/A   Overcast
12:35 PM 53.6 °F - 41.0 °F 62% 29.93 in 10.0 mi West 5.8 mph - N/A   Overcast
1:15 PM 53.6 °F - 41.0 °F 62% 29.92 in 10.0 mi NNW 3.5 mph - N/A   Overcast
1:35 PM 53.6 °F - 41.0 °F 62% 29.92 in 10.0 mi NW 3.5 mph - N/A   Mostly Cloudy
2:15 PM 53.6 °F - 41.0 °F 62% 29.90 in 10.0 mi WNW 8.1 mph - N/A   Mostly Cloudy
2:35 PM 53.6 °F - 41.0 °F 62% 29.90 in 10.0 mi Calm Calm - N/A   Overcast
2:55 PM 53.6 °F - 41.0 °F 62% 29.90 in 10.0 mi WNW 3.5 mph - N/A   Mostly Cloudy
3:15 PM 53.6 °F - 41.0 °F 62% 29.89 in 10.0 mi Calm Calm - N/A   Mostly Cloudy
3:35 PM 55.4 °F - 41.0 °F 58% 29.88 in 10.0 mi Calm Calm - N/A   Scattered Clouds
3:55 PM 55.4 °F - 42.8 °F 63% 29.89 in 10.0 mi NW 3.5 mph - N/A   Scattered Clouds
4:15 PM 55.4 °F - 42.8 °F 63% 29.89 in 10.0 mi North 3.5 mph - N/A   Scattered Clouds
4:35 PM 55.4 °F - 42.8 °F 63% 29.90 in 10.0 mi Calm Calm - N/A   Scattered Clouds
4:55 PM 53.6 °F - 42.8 °F 67% 29.90 in 10.0 mi Calm Calm - N/A   Clear
5:15 PM 51.8 °F - 44.6 °F 76% 29.91 in 10.0 mi NNE 3.5 mph - N/A   Scattered Clouds
5:35 PM 51.8 °F - 44.6 °F 76% 29.92 in 10.0 mi NNE 3.5 mph - N/A   Overcast
6:15 PM 51.8 °F - 44.6 °F 76% 29.94 in 10.0 mi WSW 5.8 mph - N/A   Overcast
6:35 PM 51.8 °F - 44.6 °F 76% 29.95 in 10.0 mi Calm Calm - N/A   Overcast
6:55 PM 50.0 °F - 46.4 °F 87% 29.95 in 10.0 mi Calm Calm - N/A   Overcast
7:15 PM 50.0 °F - 46.4 °F 87% 29.96 in 10.0 mi Calm Calm - N/A   Overcast
7:35 PM 50.0 °F - 46.4 °F 87% 29.96 in 10.0 mi Calm Calm - N/A   Overcast
7:55 PM 50.0 °F - 46.4 °F 87% 29.96 in 10.0 mi Calm Calm - N/A   Overcast
8:15 PM 48.2 °F - 46.4 °F 93% 29.97 in 10.0 mi Calm Calm - N/A   Mostly Cloudy
8:35 PM 48.2 °F - 46.4 °F 93% 29.98 in 10.0 mi Calm Calm - N/A   Scattered Clouds
8:55 PM 46.4 °F - 46.4 °F 100% 29.99 in 10.0 mi Calm Calm - N/A   Mostly Cloudy
9:15 PM 46.4 °F - 46.4 °F 100% 30.00 in 10.0 mi Calm Calm - N/A   Mostly Cloudy
9:55 PM 46.4 °F - 46.4 °F 100% 30.01 in 10.0 mi Calm Calm - N/A   Clear
10:15 PM 46.4 °F - 44.6 °F 93% 30.01 in 7.0 mi Calm Calm - N/A   Clear
10:35 PM 44.6 °F - 44.6 °F 100% 30.00 in 5.0 mi Calm Calm - N/A   Clear
10:55 PM 44.6 °F - 44.6 °F 100% 30.00 in 5.0 mi Calm Calm - N/A   Clear
11:15 PM 42.8 °F - 42.8 °F 100% 30.01 in 3.0 mi Calm Calm - N/A   Clear
11:35 PM 42.8 °F - 42.8 °F 100% 30.01 in 3.0 mi Calm Calm - N/A   Clear